Wind_Speed
36 35 34 34 34 35 34 34 35 35 36 37 38 39 41 41 42 44 45 47 49 50 52 53 55 56 57 57 58 59 59 59 58 58 57 57 57 57
36 35 35 35 35 35 35 35 35 36 37 38 39 40 40 42 43 45 46 47 49 51 52 54 55 56 57 58 58 59 58 58 58 57 57 57 57 57
37 36 36 36 35 35 35 35 36 37 37 38 39 40 41 42 44 45 47 48 50 51 53 55 55 56 57 58 58 58 58 58 58 57 57 57 57 56
37 36 36 36 35 35 35 35 36 37 37 38 39 40 41 43 45 46 47 49 50 52 54 55 55 56 57 58 58 58 58 58 57 57 58 57 56 54
37 37 36 36 35 35 35 36 37 37 38 39 40 40 42 43 45 46 47 49 51 53 54 55 55 57 58 58 58 58 58 58 58 57 57 56 54 52
38 37 37 36 36 36 36 37 37 38 38 39 40 41 42 43 45 46 48 50 52 54 54 55 56 57 58 58 58 58 58 58 57 57 55 53 51 49
37 37 36 36 36 36 37 37 37 37 38 39 39 40 42 44 45 47 49 51 52 53 54 55 56 57 57 57 57 58 58 58 57 56 53 51 49 47
37 37 37 37 36 36 37 36 36 37 38 38 39 41 42 44 46 47 49 51 52 53 54 55 56 57 58 57 57 58 57 57 56 54 51 49 47 45
37 37 36 36 36 36 36 36 36 37 38 39 40 41 43 45 46 48 50 51 52 52 54 55 57 57 57 57 57 57 57 55 53 51 49 47 46 44
37 36 36 35 35 35 35 35 36 37 38 38 40 42 44 45 46 48 50 51 51 53 54 55 56 57 57 57 57 57 55 53 51 48 47 46 45 42
37 36 35 35 34 35 35 35 36 36 37 39 41 43 44 45 46 47 49 50 51 52 54 55 55 57 57 57 57 56 53 50 48 46 45 44 43 41
38 37 35 35 35 34 34 35 35 36 38 40 42 42 43 44 46 47 49 49 50 52 53 55 55 56 56 56 55 53 50 48 47 45 44 43 41 39
38 36 36 35 35 34 34 35 36 37 39 40 41 41 42 44 46 47 48 49 51 52 53 54 55 55 55 53 52 50 48 46 45 44 43 41 39 37
37 36 35 35 35 35 35 35 36 37 38 39 40 41 42 44 45 46 47 49 51 52 53 54 54 54 53 51 49 47 46 45 43 42 41 39 38 36
37 37 36 35 35 35 35 35 35 36 37 38 39 40 42 43 44 45 47 49 51 52 53 54 54 53 51 49 46 45 44 43 41 40 39 37 35 33
37 36 35 35 35 35 35 35 35 35 36 37 38 40 42 43 44 45 47 49 51 52 54 53 52 51 49 46 45 43 41 40 38 38 36 34 32 30
35 34 34 34 34 34 34 33 34 35 36 37 38 40 41 42 43 44 46 49 51 52 53 52 50 48 46 44 42 40 38 38 36 35 33 31 30 29
33 33 33 33 33 33 33 32 33 33 34 36 38 39 40 41 42 44 47 49 51 51 51 49 47 45 44 42 39 37 36 35 34 33 31 30 29 28
32 32 32 32 32 31 31 31 31 32 33 35 37 38 39 40 41 44 47 49 50 50 48 46 43 42 41 38 36 34 34 33 32 31 30 29 28 27
29 29 29 28 28 28 28 29 30 31 33 34 36 37 38 39 41 44 46 47 48 47 45 43 40 39 37 35 33 32 32 31 31 30 29 27 27 26
28 26 25 25 26 26 27 28 29 30 32 34 35 36 37 39 41 44 45 46 46 45 42 40 38 37 35 33 31 31 31 30 30 28 27 26 25 24
27 26 25 25 25 26 27 27 29 30 31 33 34 35 36 38 41 43 44 44 44 42 39 37 35 34 33 31 30 30 30 30 29 27 25 24 22 20
26 25 25 25 25 25 26 27 28 29 31 32 33 34 36 38 40 42 43 43 42 39 36 34 32 32 30 29 29 30 29 28 27 25 23 21 20 19
Wind_Direction
258 262 266 270 274 277 280 283 287 291 295 298 300 301 303 305 307 309 310 312 314 315 316 317 318 318 319 319 319 320 320 319 318 318 317 317 316 314
258 262 266 270 274 277 279 283 287 290 294 297 300 302 303 305 307 309 310 312 314 315 316 317 318 318 319 320 320 320 320 320 319 319 318 317 317 316
258 262 265 269 273 276 279 283 286 290 294 297 300 302 303 306 308 309 311 312 314 315 317 317 318 319 320 321 321 321 320 320 320 319 319 318 318 317
258 261 265 269 272 275 279 283 286 290 294 297 300 302 304 306 308 310 311 312 314 316 317 318 319 319 321 321 321 321 321 321 320 320 319 319 319 318
257 261 265 268 272 274 278 282 286 290 294 298 300 302 304 307 308 310 311 313 315 316 318 319 319 320 321 321 321 321 322 321 320 320 320 320 320 320
257 261 265 268 271 274 278 282 286 290 295 298 300 302 305 307 309 311 312 314 315 316 318 319 319 320 321 321 321 321 322 321 321 321 321 321 321 321
257 261 264 266 270 273 278 282 286 290 294 297 300 303 306 308 309 311 313 314 315 317 318 319 320 320 320 321 321 322 322 322 321 322 322 322 322 322
257 261 264 266 269 274 278 281 286 291 295 298 301 304 306 308 310 312 313 314 316 317 318 319 320 320 321 321 322 322 322 322 322 322 322 322 323 323
257 261 264 268 271 275 278 282 287 291 295 298 301 304 306 308 310 312 314 315 317 318 319 320 320 321 321 322 322 323 323 323 322 322 322 322 322 322
257 260 264 268 272 275 279 283 288 292 295 298 301 304 306 308 310 313 315 316 318 319 320 320 321 321 322 322 323 323 324 323 323 323 323 323 323 323
256 260 264 269 272 276 280 285 289 292 295 299 302 304 306 308 311 313 315 317 318 319 320 321 321 322 322 322 323 324 324 324 324 324 325 324 324 324
256 260 265 269 273 277 281 286 290 293 296 299 302 304 307 310 312 314 315 317 319 320 321 321 322 322 322 323 323 325 325 325 325 325 326 326 326 325
256 261 265 268 272 277 280 285 289 293 296 299 302 305 308 311 312 314 316 318 319 320 321 322 323 323 323 324 324 325 325 325 326 326 327 327 327 327
256 261 264 267 272 275 280 285 289 292 296 300 303 306 309 311 313 314 317 319 320 321 322 323 323 324 324 324 324 325 326 326 327 327 328 328 329 329
256 259 262 266 271 274 280 285 289 292 296 301 304 308 310 312 314 316 318 320 321 322 324 324 324 324 325 325 325 326 326 327 328 329 329 329 330 331
254 257 260 265 269 274 280 284 288 293 298 302 305 309 311 313 315 317 319 321 323 324 325 325 325 325 325 326 326 327 328 329 330 331 332 332 333 333
252 255 260 264 269 275 279 283 288 294 298 302 306 310 312 314 316 318 320 323 324 325 325 326 326 326 327 328 328 329 330 331 333 334 334 335 335 336
252 255 259 264 270 275 280 284 289 295 299 303 307 311 313 315 317 319 322 324 325 326 326 326 327 327 329 330 331 331 332 334 335 336 336 336 337 337
251 255 260 265 271 276 280 285 289 295 299 303 308 312 314 316 319 321 323 325 327 327 328 328 328 329 331 332 333 334 335 336 337 337 338 338 339 339
251 256 261 265 271 277 282 286 291 296 300 305 309 312 315 317 320 322 324 326 328 329 329 329 329 331 333 334 334 335 337 338 338 338 339 340 342 342
251 255 261 266 272 279 284 288 293 297 302 306 310 312 315 318 321 323 325 327 329 330 330 330 331 333 334 335 335 337 337 338 338 338 339 341 343 344
250 256 263 268 274 280 285 290 295 299 304 308 312 314 316 320 322 325 327 328 329 330 330 331 332 334 335 336 337 338 338 339 340 340 341 342 345 348
249 256 264 270 276 280 285 290 295 299 305 309 312 315 318 320 323 325 327 329 329 330 331 333 335 337 337 338 338 339 339 340 342 343 344 345 350 355
Height
5749 5750 5750 5750 5750 5749 5747 5746 5744 5741 5738 5734 5730 5726 5721 5716 5711 5705 5699 5693 5686 5679 5671 5663 5654 5645 5635 5626 5616 5606 5596 5585 5575 5566 5556 5547 5537 5528
5742 5742 5743 5743 5742 5741 5740 5738 5736 5734 5730 5726 5722 5718 5713 5708 5703 5697 5691 5684 5677 5670 5662 5653 5644 5635 5625 5616 5606 5595 5585 5575 5564 5555 5545 5535 5525 5515
5734 5735 5735 5735 5735 5734 5732 5731 5728 5726 5723 5719 5715 5710 5706 5701 5695 5689 5682 5676 5668 5661 5652 5643 5634 5625 5615 5605 5595 5585 5575 5564 5554 5544 5533 5524 5513 5504
5726 5727 5727 5727 5727 5726 5725 5723 5721 5718 5715 5712 5708 5703 5698 5692 5687 5680 5674 5666 5659 5652 5643 5634 5624 5615 5605 5595 5585 5575 5564 5553 5543 5533 5523 5513 5503 5492
5718 5719 5720 5720 5719 5719 5717 5716 5714 5711 5708 5704 5700 5695 5690 5684 5678 5672 5665 5658 5650 5642 5633 5624 5615 5605 5595 5585 5574 5564 5554 5544 5534 5523 5512 5502 5492 5482
5710 5711 5712 5712 5712 5711 5710 5708 5706 5703 5700 5696 5692 5687 5682 5676 5670 5663 5656 5649 5640 5632 5623 5614 5605 5595 5585 5575 5566 5555 5544 5533 5522 5512 5502 5492 5482 5473
5702 5703 5704 5704 5704 5703 5702 5700 5698 5695 5692 5688 5684 5679 5674 5668 5661 5655 5648 5640 5632 5622 5613 5605 5596 5587 5576 5566 5555 5544 5534 5523 5512 5502 5492 5482 5473 5464
5694 5695 5696 5696 5696 5695 5694 5692 5690 5687 5684 5680 5676 5671 5665 5659 5653 5646 5638 5632 5624 5616 5605 5595 5586 5576 5566 5556 5545 5535 5524 5513 5502 5492 5482 5473 5465 5456
5686 5687 5688 5688 5688 5687 5686 5684 5682 5679 5676 5672 5668 5662 5657 5651 5645 5638 5630 5621 5613 5604 5595 5585 5575 5565 5556 5546 5535 5525 5514 5503 5493 5483 5474 5465 5457 5448
5678 5680 5680 5680 5680 5679 5678 5676 5674 5671 5668 5664 5660 5655 5649 5642 5636 5629 5621 5613 5604 5595 5585 5576 5566 5555 5545 5535 5525 5515 5504 5494 5484 5474 5466 5457 5449 5440
5670 5671 5672 5673 5672 5671 5670 5668 5666 5663 5659 5655 5651 5646 5640 5634 5628 5621 5613 5605 5596 5586 5576 5567 5557 5547 5536 5525 5515 5504 5494 5485 5475 5467 5458 5449 5441 5433
5662 5663 5664 5665 5664 5663 5662 5660 5658 5655 5651 5647 5643 5637 5632 5626 5619 5612 5604 5596 5587 5578 5568 5558 5548 5538 5528 5516 5506 5496 5486 5476 5468 5459 5450 5442 5434 5426
5653 5655 5656 5656 5656 5655 5654 5652 5650 5647 5643 5639 5634 5629 5624 5617 5610 5603 5595 5587 5578 5569 5559 5549 5539 5528 5517 5508 5498 5488 5478 5469 5460 5452 5443 5435 5427 5420
5645 5647 5648 5648 5648 5647 5646 5644 5642 5639 5635 5631 5626 5621 5615 5609 5602 5594 5586 5578 5570 5560 5550 5540 5530 5520 5509 5499 5490 5480 5471 5462 5453 5445 5437 5429 5421 5414
5636 5638 5639 5640 5639 5639 5638 5636 5633 5630 5627 5623 5618 5613 5607 5600 5593 5586 5578 5569 5560 5551 5541 5531 5521 5511 5501 5491 5482 5473 5464 5455 5447 5439 5431 5423 5416 5410
5628 5629 5630 5631 5631 5631 5630 5628 5625 5622 5619 5615 5610 5605 5599 5592 5585 5578 5570 5561 5552 5542 5532 5522 5512 5502 5492 5483 5474 5466 5457 5449 5442 5434 5427 5419 5412 5406
5619 5621 5622 5623 5623 5623 5622 5620 5617 5614 5611 5607 5602 5596 5590 5583 5577 5569 5561 5553 5544 5534 5523 5513 5503 5494 5485 5476 5468 5459 5451 5444 5437 5430 5423 5416 5409 5403
5611 5613 5614 5615 5616 5615 5614 5612 5609 5606 5603 5599 5594 5588 5582 5576 5569 5561 5553 5545 5536 5526 5515 5505 5496 5487 5478 5470 5462 5454 5447 5440 5433 5426 5419 5413 5407 5400
5603 5605 5607 5608 5608 5607 5606 5604 5601 5598 5595 5591 5586 5580 5574 5568 5561 5553 5545 5537 5527 5518 5508 5498 5490 5481 5473 5465 5458 5451 5444 5437 5430 5423 5417 5410 5404 5398
5596 5598 5599 5600 5600 5599 5598 5596 5594 5591 5587 5583 5578 5572 5566 5560 5553 5546 5537 5529 5519 5510 5501 5492 5484 5476 5468 5461 5454 5448 5441 5434 5427 5420 5414 5408 5402 5396
5589 5591 5592 5592 5592 5591 5590 5588 5586 5583 5579 5575 5570 5565 5559 5552 5546 5538 5530 5521 5512 5503 5495 5486 5479 5471 5464 5457 5451 5444 5438 5431 5424 5418 5412 5406 5401 5395
5582 5583 5584 5585 5585 5584 5583 5581 5579 5576 5572 5567 5562 5557 5551 5545 5538 5531 5523 5514 5506 5497 5489 5481 5474 5467 5460 5454 5448 5441 5435 5428 5422 5415 5409 5404 5399 5394
5574 5576 5577 5577 5577 5576 5575 5574 5571 5568 5564 5560 5555 5550 5544 5538 5531 5524 5516 5508 5499 5491 5484 5477 5470 5463 5457 5451 5445 5438 5432 5426 5420 5414 5409 5403 5398 5393